STARLINK-36114

Last updated on Mon Dec 15 2025 00:02:12 GMT+0000 (Coordinated Universal Time)

1 66870U 25281Y 25348.25003472 -.01433793 00000+0 -60425-2 0 9990 2 66870 43.0005 112.8834 0001523 258.7793 323.8891 15.87380503 1544
UTC large
Height (km)
Speed (km/s)
/
Latitude / Longitude
Inclination (degrees)
Orbital Period (minutes)
Azimuth
Elevation
Range (km)
Doppler Factor

Next 0 passes for location: London (51.5072 / 0.1276)

Sorry there are no passes over London.